Home   Weather   Juneau   Past weeks

Flag for USA Past Weather in Juneau, Alaska, USA — Yesterday and Last 2 Weeks

Now
18 °F

Passing clouds.


Feels Like: 18 °F
Forecast: 2 / 14 °F
Wind: No wind

Location: Juneau International Airport

Current Time: Dec 5, 2016 at 11:46:31 am

Latest Report: Dec 5, 2016 at 10:53 am


Visibility: 10 mi

Pressure: 30.43 "Hg

Humidity: 84%

Dew Point: 14 °F

Location of JuneauLocation

Past Weather in Juneau — Graph

°F

Juneau Temperature Yesterday

Maximum temperature yesterday: 32 °F (at 12:53 am)
Minimum temperature yesterday: 18 °F (at 10:53 pm)
Average temperature yesterday: 25 °F

High & Low Weather Summary for the Past Weeks

 TemperatureHumidityPressure
High45 °F (Nov 29, 12:53 pm)100% (Nov 25, 1:56 am)30.43 "Hg (Nov 25, 1:56 am)
Low14 °F (Nov 21, 2:53 am)49% (Nov 22, 12:53 am)28.87 "Hg (Dec 2, 6:53 am)
Average32 °F86%29.58 "Hg
* Reported Nov 20 9:53 am — Dec 5 9:53 am, Juneau, Weather by CustomWeather, © 2016

Note: Actual official high and low records may vary slightly from our data, if they occured in-between our weather recording intervals... More about our weather records

Advertising

Juneau Weather History for the Previous 24 Hours

Scroll right to see more
 ConditionsComfort  
Time TempWeatherWind HumidityBarometerVisibility
9:53 am
Mon, Dec 5
17 °FPassing clouds.No wind83%30.43 "Hg10 mi
8:53 am14 °FPassing clouds.No wind92%30.42 "Hg10 mi
7:53 am16 °FPassing clouds.No wind87%30.40 "Hg10 mi
6:53 am15 °FClear.No wind87%30.39 "Hg10 mi
5:53 am15 °FClear.No wind87%30.37 "Hg10 mi
4:53 am18 °FClear.No wind80%30.36 "Hg10 mi
3:53 am16 °FClear.No wind87%30.35 "Hg10 mi
2:53 am17 °FClear.No wind83%30.34 "Hg10 mi
1:53 am18 °FClear.No wind84%30.33 "Hg10 mi
12:53 am16 °FClear.No wind92%30.32 "Hg10 mi
11:53 pm
Sun, Dec 4
18 °FClear.No wind80%30.29 "Hg10 mi
10:53 pm18 °FClear.No wind80%30.27 "Hg10 mi
9:53 pm19 °FClear.No wind81%30.25 "Hg10 mi
8:53 pm19 °FClear.No wind81%30.23 "Hg10 mi
7:53 pm21 °FPassing clouds.5 mph74%30.21 "Hg10 mi
6:53 pm21 °FPassing clouds.No wind81%30.19 "Hg10 mi
5:53 pm22 °FPassing clouds.No wind89%30.17 "Hg10 mi
4:53 pm22 °FPassing clouds.No wind89%30.15 "Hg10 mi
3:53 pm23 °FPassing clouds.No wind85%30.12 "Hg10 mi
2:53 pm25 °FScattered clouds.No wind85%30.09 "Hg10 mi
1:53 pm25 °FScattered clouds.7 mph81%30.07 "Hg10 mi
12:53 pm28 °FScattered clouds.8 mph78%30.05 "Hg10 mi
11:53 am28 °FScattered clouds.8 mph78%30.03 "Hg10 mi
Weather by CustomWeather, © 2016

See weather overviewHow to use our weather pages